| time (UTC) | temp F | wind direction | speed MPH | gust MPH | rain 1hr in | rain 24hr in | rain mn in | humidity % | barometer mb |
| 20260504130540 | 50 | 81 | 0.0 | 3.0 | 0.00 | 0.00 | 0.00 | 41 | 1009.2 |
| 20260504110521 | 53 | 228 | 12.0 | 18.0 | 0.00 | 0.00 | 0.00 | 33 | 1008.9 |
| 20260504100514 | 54 | 235 | 12.0 | 19.0 | 0.00 | 0.00 | 0.00 | 31 | 1009.4 |
| 20260504082008 | 54 | 245 | 10.0 | 14.0 | 0.00 | 0.00 | 0.00 | 32 | 1009.8 |
| 20260504081507 | 54 | 238 | 6.0 | 12.0 | 0.00 | 0.00 | 0.00 | 32 | 1009.8 |
| 20260504081003 | 54 | 236 | 7.0 | 15.0 | 0.00 | 0.00 | 0.00 | 31 | 1009.9 |
| 20260504080502 | 55 | 239 | 9.0 | 16.0 | 0.00 | 0.00 | 0.00 | 31 | 1009.9 |
| 20260504050542 | 54 | 226 | 6.0 | 12.0 | 0.00 | 0.00 | 0.00 | 35 | 1011.2 |
| 20260504045546 | 54 | 249 | 2.0 | 10.0 | 0.00 | 0.00 | 0.00 | 38 | 1011.4 |
| 20260504045041 | 54 | 246 | 3.0 | 11.0 | 0.00 | 0.00 | 0.00 | 37 | 1011.4 |
| 20260504044541 | 54 | 224 | 6.0 | 11.0 | 0.00 | 0.00 | 0.00 | 37 | 1011.5 |
| 20260504044042 | 54 | 222 | 4.0 | 8.0 | 0.00 | 0.00 | 0.00 | 36 | 1011.5 |
| 20260504043541 | 53 | 233 | 6.0 | 8.0 | 0.00 | 0.00 | 0.00 | 37 | 1011.5 |
| 20260504043048 | 53 | 195 | 1.0 | 5.0 | 0.00 | 0.00 | 0.00 | 39 | 1011.5 |
| 20260504042544 | 52 | 196 | 0.0 | 4.0 | 0.00 | 0.00 | 0.00 | 38 | 1011.5 |
| 20260504042142 | 52 | 174 | 0.0 | 3.0 | 0.00 | 0.00 | 0.00 | 42 | 1011.5 |
| 20260504041540 | 52 | 232 | 0.0 | 2.0 | 0.00 | 0.00 | 0.00 | 40 | 1011.6 |
| 20260504041040 | 52 | 232 | 0.0 | 6.0 | 0.00 | 0.00 | 0.00 | 41 | 1011.6 |
| 20260504040540 | 52 | 220 | 1.0 | 8.0 | 0.00 | 0.00 | 0.00 | 41 | 1011.5 |
| 20260504040041 | 52 | 210 | 5.0 | 8.0 | 0.00 | 0.00 | 0.00 | 41 | 1011.5 |
| 20260504035539 | 51 | 236 | 1.0 | 6.0 | 0.00 | 0.00 | 0.00 | 43 | 1011.5 |
| 20260504035039 | 52 | 254 | 2.0 | 8.0 | 0.00 | 0.00 | 0.00 | 43 | 1011.4 |
| 20260504034539 | 53 | 220 | 5.0 | 8.0 | 0.00 | 0.00 | 0.00 | 40 | 1011.4 |
| 20260504034039 | 53 | 216 | 5.0 | 8.0 | 0.00 | 0.00 | 0.00 | 40 | 1011.4 |
| 20260504033543 | 53 | 223 | 5.0 | 8.0 | 0.00 | 0.00 | 0.00 | 41 | 1011.4 |
| 20260504033041 | 53 | 208 | 6.0 | 9.0 | 0.00 | 0.00 | 0.00 | 40 | 1011.3 |
| 20260504032539 | 53 | 214 | 3.0 | 7.0 | 0.00 | 0.00 | 0.00 | 39 | 1011.3 |
| 20260504032039 | 54 | 212 | 3.0 | 7.0 | 0.00 | 0.00 | 0.00 | 39 | 1011.3 |
| 20260504031541 | 53 | 216 | 5.0 | 8.0 | 0.00 | 0.00 | 0.00 | 38 | 1011.2 |
| 20260504031040 | 54 | 234 | 0.0 | 5.0 | 0.00 | 0.00 | 0.00 | 40 | 1011.1 |
| 20260504030539 | 55 | 266 | 3.0 | 6.0 | 0.00 | 0.00 | 0.00 | 36 | 1011.2 |
| 20260504030040 | 55 | 278 | 2.0 | 6.0 | 0.00 | 0.00 | 0.00 | 37 | 1011.0 |
| 20260504025539 | 54 | 214 | 2.0 | 4.0 | 0.00 | 0.00 | 0.00 | 36 | 1011.0 |
| 20260504025039 | 54 | 225 | 2.0 | 4.0 | 0.00 | 0.00 | 0.00 | 37 | 1010.9 |
| 20260504024537 | 55 | 287 | 0.0 | 4.0 | 0.00 | 0.00 | 0.00 | 36 | 1010.8 |
| 20260504024037 | 55 | 287 | 0.0 | 4.0 | 0.00 | 0.00 | 0.00 | 35 | 1010.7 |
| 20260504023537 | 56 | 334 | 1.0 | 4.0 | 0.00 | 0.00 | 0.00 | 34 | 1010.7 |
| 20260504023038 | 57 | 338 | 0.0 | 3.0 | 0.00 | 0.00 | 0.00 | 32 | 1010.6 |
| 20260504022538 | 57 | 338 | 0.0 | 4.0 | 0.00 | 0.00 | 0.00 | 32 | 1010.4 |
| 20260504022036 | 58 | 354 | 2.0 | 4.0 | 0.00 | 0.00 | 0.00 | 31 | 1010.4 |
| 20260504021537 | 59 | 320 | 0.0 | 4.0 | 0.00 | 0.00 | 0.00 | 31 | 1010.4 |
| 20260504021039 | 60 | 273 | 2.0 | 5.0 | 0.00 | 0.00 | 0.00 | 27 | 1010.3 |
| 20260504020536 | 61 | 278 | 3.0 | 6.0 | 0.00 | 0.00 | 0.00 | 28 | 1010.2 |
| 20260504020037 | 63 | 295 | 3.0 | 6.0 | 0.00 | 0.00 | 0.00 | 26 | 1010.2 |
| 20260504015537 | 64 | 319 | 1.0 | 4.0 | 0.00 | 0.00 | 0.00 | 23 | 1010.2 |
| 20260504015037 | 65 | 324 | 1.0 | 6.0 | 0.00 | 0.00 | 0.00 | 22 | 1010.2 |
| 20260504014540 | 66 | 354 | 3.0 | 8.0 | 0.00 | 0.00 | 0.00 | 21 | 1010.2 |
| 20260504014036 | 66 | 349 | 3.0 | 8.0 | 0.00 | 0.00 | 0.00 | 21 | 1010.1 |
| 20260504013535 | 66 | 359 | 4.0 | 10.0 | 0.00 | 0.00 | 0.00 | 19 | 1010.1 |
| 20260504013047 | 67 | 31 | 5.0 | 12.0 | 0.00 | 0.00 | 0.00 | 18 | 1010.1 |
| 20260504012535 | 67 | 332 | 7.0 | 12.0 | 0.00 | 0.00 | 0.00 | 18 | 1010.1 |
| 20260504012036 | 68 | 347 | 6.0 | 12.0 | 0.00 | 0.00 | 0.00 | 19 | 1010.2 |
| 20260504011537 | 68 | 16 | 8.0 | 12.0 | 0.00 | 0.00 | 0.00 | 18 | 1010.1 |
| 20260504011034 | 68 | 4 | 6.0 | 11.0 | 0.00 | 0.00 | 0.00 | 18 | 1010.2 |
| 20260504010534 | 67 | 348 | 6.0 | 10.0 | 0.00 | 0.00 | 0.00 | 18 | 1010.3 |
| 20260504010039 | 68 | 8 | 3.0 | 10.0 | 0.00 | 0.00 | 0.00 | 18 | 1010.3 |
| 20260504005534 | 68 | 296 | 1.0 | 10.0 | 0.00 | 0.00 | 0.00 | 19 | 1010.3 |
| 20260504005034 | 67 | 338 | 4.0 | 12.0 | 0.00 | 0.00 | 0.00 | 18 | 1010.3 |
| 20260504004533 | 68 | 11 | 7.0 | 12.0 | 0.00 | 0.00 | 0.00 | 17 | 1010.3 |
| 20260504004034 | 68 | 344 | 7.0 | 14.0 | 0.00 | 0.00 | 0.00 | 18 | 1010.3 |
| 20260504003534 | 69 | 10 | 10.0 | 14.0 | 0.00 | 0.00 | 0.00 | 17 | 1010.3 |
| 20260504003036 | 69 | 67 | 7.0 | 14.0 | 0.00 | 0.00 | 0.00 | 17 | 1010.1 |
| 20260504002532 | 69 | 50 | 5.0 | 15.0 | 0.00 | 0.00 | 0.00 | 17 | 1010.2 |
| 20260504002032 | 69 | 18 | 9.0 | 15.0 | 0.00 | 0.00 | 0.00 | 16 | 1010.3 |
| 20260504001537 | 69 | 75 | 8.0 | 12.0 | 0.00 | 0.00 | 0.00 | 16 | 1010.4 |
| 20260504001031 | 69 | 60 | 6.0 | 11.0 | 0.00 | 0.00 | 0.00 | 16 | 1010.4 |
| 20260504000531 | 70 | 17 | 5.0 | 11.0 | 0.00 | 0.00 | 0.00 | 16 | 1010.4 |
| 20260504000031 | 70 | 24 | 6.0 | 11.0 | 0.00 | 0.00 | 0.00 | 16 | 1010.4 |
| 20260503235530 | 70 | 11 | 7.0 | 15.0 | 0.00 | 0.00 | 0.00 | 16 | 1010.5 |
| 20260503235029 | 70 | 4 | 10.0 | 15.0 | 0.00 | 0.00 | 0.00 | 16 | 1010.5 |
| 20260503234529 | 70 | 287 | 9.0 | 15.0 | 0.00 | 0.00 | 0.00 | 16 | 1010.5 |
| 20260503234028 | 70 | 291 | 6.0 | 19.0 | 0.00 | 0.00 | 0.00 | 15 | 1010.5 |
| 20260503233529 | 70 | 302 | 12.0 | 19.0 | 0.00 | 0.00 | 0.00 | 15 | 1010.4 |
| 20260503233029 | 70 | 245 | 5.0 | 18.0 | 0.00 | 0.00 | 0.00 | 16 | 1010.5 |
| 20260503232529 | 70 | 297 | 12.0 | 18.0 | 0.00 | 0.00 | 0.00 | 15 | 1010.5 |
| 20260503232028 | 70 | 208 | 6.0 | 15.0 | 0.00 | 0.00 | 0.00 | 15 | 1010.6 |
| 20260503231527 | 70 | 301 | 8.0 | 15.0 | 0.00 | 0.00 | 0.00 | 15 | 1010.6 |
| 20260503231026 | 71 | 287 | 6.0 | 15.0 | 0.00 | 0.00 | 0.00 | 15 | 1010.6 |
| 20260503230528 | 70 | 359 | 7.0 | 18.0 | 0.00 | 0.00 | 0.00 | 14 | 1010.6 |
| 20260503230026 | 70 | 359 | 6.0 | 18.0 | 0.00 | 0.00 | 0.00 | 14 | 1010.6 |
| 20260503225525 | 69 | 4 | 7.0 | 14.0 | 0.00 | 0.00 | 0.00 | 15 | 1010.7 |
| 20260503225026 | 70 | 25 | 6.0 | 18.0 | 0.00 | 0.00 | 0.00 | 16 | 1010.7 |
| 20260503224524 | 70 | 251 | 12.0 | 18.0 | 0.00 | 0.00 | 0.00 | 15 | 1010.9 |
| 20260503224024 | 69 | 240 | 9.0 | 17.0 | 0.00 | 0.00 | 0.00 | 16 | 1010.9 |
| 20260503223524 | 69 | 318 | 7.0 | 20.0 | 0.00 | 0.00 | 0.00 | 15 | 1010.9 |
| 20260503223023 | 70 | 266 | 10.0 | 20.0 | 0.00 | 0.00 | 0.00 | 15 | 1010.8 |
| 20260503222521 | 70 | 320 | 6.0 | 19.0 | 0.00 | 0.00 | 0.00 | 13 | 1010.9 |
| 20260503222021 | 69 | 289 | 11.0 | 19.0 | 0.00 | 0.00 | 0.00 | 14 | 1011.1 |
| 20260503221523 | 68 | 318 | 14.0 | 19.0 | 0.00 | 0.00 | 0.00 | 14 | 1011.1 |
| 20260503221020 | 69 | 286 | 7.0 | 19.0 | 0.00 | 0.00 | 0.00 | 14 | 1011.1 |
| 20260503220519 | 69 | 272 | 11.0 | 19.0 | 0.00 | 0.00 | 0.00 | 16 | 1011.2 |
| 20260503220025 | 69 | 281 | 13.0 | 19.0 | 0.00 | 0.00 | 0.00 | 15 | 1011.3 |
| 20260503215518 | 69 | 311 | 14.0 | 19.0 | 0.00 | 0.00 | 0.00 | 15 | 1011.4 |
| 20260503215016 | 67 | 271 | 8.0 | 11.0 | 0.00 | 0.00 | 0.00 | 16 | 1011.5 |
| 20260503214521 | 67 | 294 | 5.0 | 13.0 | 0.00 | 0.00 | 0.00 | 17 | 1011.6 |
| 20260503214015 | 67 | 321 | 6.0 | 15.0 | 0.00 | 0.00 | 0.00 | 16 | 1011.7 |
| 20260503213515 | 67 | 316 | 10.0 | 15.0 | 0.00 | 0.00 | 0.00 | 16 | 1011.8 |
| 20260503213014 | 68 | 295 | 9.0 | 13.0 | 0.00 | 0.00 | 0.00 | 15 | 1011.8 |
| 20260503212514 | 67 | 241 | 3.0 | 9.0 | 0.00 | 0.00 | 0.00 | 19 | 1011.8 |
| 20260503212013 | 67 | 225 | 4.0 | 9.0 | 0.00 | 0.00 | 0.00 | 20 | 1011.8 |
| 20260503211512 | 68 | 219 | 3.0 | 6.0 | 0.00 | 0.00 | 0.00 | 22 | 1011.8 |
| 20260503211011 | 68 | 168 | 3.0 | 6.0 | 0.00 | 0.00 | 0.00 | 23 | 1011.9 |
| 20260503210510 | 68 | 131 | 1.0 | 10.0 | 0.00 | 0.00 | 0.00 | 22 | 1012.1 |
| 20260503210012 | 67 | 105 | 4.0 | 10.0 | 0.00 | 0.00 | 0.00 | 24 | 1012.2 |
| 20260503205509 | 67 | 97 | 5.0 | 9.0 | 0.00 | 0.00 | 0.00 | 23 | 1012.2 |
| 20260503205009 | 68 | 92 | 3.0 | 11.0 | 0.00 | 0.00 | 0.00 | 24 | 1012.3 |
| 20260503204516 | 68 | 116 | 6.0 | 15.0 | 0.00 | 0.00 | 0.00 | 24 | 1012.4 |
| 20260503204007 | 68 | 103 | 7.0 | 15.0 | 0.00 | 0.00 | 0.00 | 24 | 1012.4 |
| 20260503203506 | 68 | 111 | 7.0 | 11.0 | 0.00 | 0.00 | 0.00 | 23 | 1012.5 |
| 20260503203006 | 69 | 183 | 4.0 | 11.0 | 0.00 | 0.00 | 0.00 | 25 | 1012.7 |
| 20260503202505 | 69 | 97 | 1.0 | 6.0 | 0.00 | 0.00 | 0.00 | 25 | 1012.6 |
| 20260503202004 | 67 | 167 | 2.0 | 6.0 | 0.00 | 0.00 | 0.00 | 24 | 1012.7 |
| 20260503201509 | 67 | 297 | 2.0 | 10.0 | 0.00 | 0.00 | 0.00 | 25 | 1012.7 |
| 20260503201003 | 67 | 306 | 2.0 | 10.0 | 0.00 | 0.00 | 0.00 | 25 | 1012.7 |
| 20260503200502 | 67 | 29 | 2.0 | 14.0 | 0.00 | 0.00 | 0.00 | 25 | 1012.9 |
| 20260503200005 | 67 | 129 | 4.0 | 14.0 | 0.00 | 0.00 | 0.00 | 24 | 1013.1 |
| 20260503195601 | 68 | 127 | 4.0 | 12.0 | 0.00 | 0.00 | 0.00 | 25 | 1013.1 |
| 20260503195100 | 67 | 177 | 4.0 | 12.0 | 0.00 | 0.00 | 0.00 | 25 | 1013.2 |
| 20260503194602 | 66 | 144 | 3.0 | 14.0 | 0.00 | 0.00 | 0.00 | 26 | 1013.1 |
| 20260503194057 | 66 | 91 | 10.0 | 15.0 | 0.00 | 0.00 | 0.00 | 26 | 1013.2 |
| 20260503193555 | 66 | 96 | 6.0 | 15.0 | 0.00 | 0.00 | 0.00 | 26 | 1013.3 |
| 20260503193056 | 66 | 87 | 7.0 | 14.0 | 0.00 | 0.00 | 0.00 | 28 | 1013.3 |
| 20260503192555 | 66 | 24 | 2.0 | 8.0 | 0.00 | 0.00 | 0.00 | 24 | 1013.4 |
| 20260503192054 | 66 | 80 | 2.0 | 10.0 | 0.00 | 0.00 | 0.00 | 25 | 1013.5 |
| 20260503191553 | 66 | 126 | 7.0 | 10.0 | 0.00 | 0.00 | 0.00 | 25 | 1013.6 |
| 20260503191052 | 65 | 147 | 2.0 | 12.0 | 0.00 | 0.00 | 0.00 | 26 | 1013.7 |
| 20260503190551 | 65 | 107 | 7.0 | 12.0 | 0.00 | 0.00 | 0.00 | 27 | 1013.9 |
| 20260503190050 | 65 | 98 | 3.0 | 12.0 | 0.00 | 0.00 | 0.00 | 28 | 1014.0 |
| 20260503185551 | 65 | 105 | 5.0 | 12.0 | 0.00 | 0.00 | 0.00 | 29 | 1014.2 |
| 20260503185050 | 64 | 118 | 2.0 | 14.0 | 0.00 | 0.00 | 0.00 | 29 | 1014.3 |
| 20260503184555 | 64 | 106 | 5.0 | 11.0 | 0.00 | 0.00 | 0.00 | 29 | 1014.4 |
| 20260503184046 | 65 | 73 | 8.0 | 11.0 | 0.00 | 0.00 | 0.00 | 27 | 1014.5 |
| 20260503183546 | 64 | 40 | 2.0 | 7.0 | 0.00 | 0.00 | 0.00 | 28 | 1014.5 |
| 20260503183044 | 64 | 253 | 1.0 | 7.0 | 0.00 | 0.00 | 0.00 | 27 | 1014.7 |
| 20260503182544 | 64 | 174 | 3.0 | 7.0 | 0.00 | 0.00 | 0.00 | 26 | 1014.8 |
| 20260503182041 | 63 | 124 | 1.0 | 11.0 | 0.00 | 0.00 | 0.00 | 27 | 1015.0 |
| 20260503181541 | 63 | 29 | 6.0 | 11.0 | 0.00 | 0.00 | 0.00 | 27 | 1015.0 |
| 20260503181040 | 63 | 64 | 5.0 | 11.0 | 0.00 | 0.00 | 0.00 | 28 | 1015.1 |
| 20260503180543 | 63 | 152 | 2.0 | 10.0 | 0.00 | 0.00 | 0.00 | 29 | 1015.2 |
| 20260503180045 | 62 | 109 | 5.0 | 10.0 | 0.00 | 0.00 | 0.00 | 31 | 1015.3 |
| 20260503175537 | 62 | 27 | 3.0 | 5.0 | 0.00 | 0.00 | 0.00 | 28 | 1015.3 |
| 20260503175036 | 62 | 344 | 2.0 | 12.0 | 0.00 | 0.00 | 0.00 | 29 | 1015.4 |
| 20260503174535 | 61 | 21 | 7.0 | 12.0 | 0.00 | 0.00 | 0.00 | 30 | 1015.5 |
| 20260503174036 | 61 | 39 | 4.0 | 12.0 | 0.00 | 0.00 | 0.00 | 31 | 1015.5 |
| 20260503173533 | 61 | 70 | 7.0 | 12.0 | 0.00 | 0.00 | 0.00 | 30 | 1015.7 |
| 20260503173032 | 61 | 33 | 6.0 | 10.0 | 0.00 | 0.00 | 0.00 | 30 | 1015.7 |
| 20260503172531 | 61 | 87 | 3.0 | 9.0 | 0.00 | 0.00 | 0.00 | 31 | 1015.7 |
| 20260503172032 | 61 | 45 | 3.0 | 11.0 | 0.00 | 0.00 | 0.00 | 30 | 1015.7 |
| 20260503171531 | 61 | 69 | 5.0 | 11.0 | 0.00 | 0.00 | 0.00 | 28 | 1015.9 |
| 20260503171030 | 61 | 93 | 4.0 | 8.0 | 0.00 | 0.00 | 0.00 | 30 | 1016.0 |
| 20260503170530 | 62 | 319 | 2.0 | 6.0 | 0.00 | 0.00 | 0.00 | 30 | 1016.1 |
| 20260503151001 | 55 | 27 | 3.0 | 8.0 | 0.00 | 0.00 | 0.00 | 37 | 1017.4 |
| 20260503150559 | 55 | 52 | 3.0 | 9.0 | 0.00 | 0.00 | 0.00 | 37 | 1017.4 |